Location: Harburg
(48.7667°N, 10.6667°E)
Time: 02:50:03
(UTC+00:00)

Cosmos 1048 Rocket - Pass Details

Date: 18 September 2020
Orbit: 742 x 792 km, 74.0° (Epoch: 24 October)

Event Time Altitude Azimuth Distance (km) Brightness Sun altitude
Rises 19:23:51 0° 335° (NNW) 3,257 8.1 -20.0°
Reaches altitude 10° 19:26:14 10° 333° (NNW) 2,333 7.3 -20.3°
Maximum altitude 19:31:31 72° 250° (WSW) 824 4.2 -21.1°
Enters shadow 19:34:11 30° 173° (S) 1,379 5.0 -21.5°
